IW1PUR Weather Reports


time (UTC)temp
F
wind
direction
speed
knots
gust
knots
rain 1hr
in
rain 24hr
in
rain mn
in
humidity
%
barometer
mb
20260507230104 49 23 0.0 0.0 0.00 0.10 0.00 83 1013.2
20260507225702 48 45 0.0 0.0 0.00 0.10 0.00 83 1013.2
20260507225305 48 90 0.0 0.0 0.00 0.10 0.00 83 1013.2
20260507224259 48 90 0.0 0.0 0.00 0.10 0.00 83 1013.1
20260507223900 48 68 0.0 0.0 0.00 0.10 0.00 83 1013.2
20260507223457 49 45 0.0 0.0 0.00 0.10 0.00 83 1013.1
20260507223055 49 45 0.0 0.0 0.00 0.10 0.00 84 1013.2
20260507222655 49 45 0.0 0.0 0.00 0.10 0.00 84 1013.1
20260507222054 49 45 0.0 0.0 0.00 0.10 0.00 84 1013.2
20260507221653 49 45 0.0 0.0 0.00 0.10 0.00 84 1013.1
20260507221251 49 45 0.0 0.0 0.00 0.10 0.00 84 1013.0
20260507220850 49 45 0.0 0.0 0.00 0.10 0.00 84 1013.1
20260507220448 49 45 0.0 0.0 0.00 0.00 0.00 84 1013.0
20260507215932 49 90 0.0 0.0 0.00 0.10 0.10 84 1013.0
20260507215532 49 45 0.0 0.0 0.01 0.10 0.10 84 1012.9
20260507215131 49 45 0.0 0.0 0.01 0.10 0.10 84 1012.9
20260507214731 49 90 0.0 0.9 0.01 0.10 0.10 84 1012.9
20260507214329 49 45 0.0 0.0 0.01 0.10 0.10 84 1012.8
20260507213927 49 68 0.0 0.0 0.01 0.10 0.10 84 1012.8
20260507213526 49 45 0.0 0.0 0.01 0.10 0.10 84 1012.8
20260507213126 50 90 0.0 0.0 0.01 0.10 0.10 84 1012.7
20260507212726 50 45 0.0 0.0 0.01 0.10 0.10 84 1012.7
20260507211722 50 45 0.0 0.0 0.01 0.10 0.10 84 1012.8
20260507211322 50 45 0.0 0.0 0.01 0.10 0.10 84 1012.7
20260507210920 50 45 0.0 0.0 0.01 0.10 0.10 83 1012.8
20260507210519 50 45 0.0 0.0 0.01 0.10 0.10 82 1012.8
20260507210118 50 45 0.0 0.0 0.00 0.09 0.10 82 1012.9
20260507205716 50 135 0.0 0.0 0.00 0.09 0.09 82 1012.9
20260507205315 50 45 0.0 0.0 0.00 0.09 0.09 82 1012.8
20260507204313 51 45 0.0 0.0 0.00 0.09 0.09 81 1012.8
20260507203912 51 135 0.0 0.0 0.00 0.09 0.09 81 1012.9
20260507203510 51 135 0.0 0.0 0.00 0.09 0.09 80 1012.8
20260507203109 51 45 0.0 0.0 0.00 0.09 0.09 80 1012.9
20260507202708 51 45 0.0 0.0 0.00 0.09 0.09 80 1012.9
20260507202308 51 45 0.0 0.0 0.00 0.09 0.09 79 1012.8
20260507201907 51 180 0.0 0.0 0.00 0.09 0.09 79 1012.8
20260507201507 51 45 0.0 0.0 0.00 0.09 0.09 79 1012.8
20260507200905 51 45 0.0 0.0 0.00 0.09 0.09 78 1012.7
20260507195701 51 45 0.0 0.0 0.00 0.09 0.09 77 1012.5
20260507195259 51 45 0.0 0.0 0.00 0.09 0.09 76 1012.5
20260507194858 51 135 0.0 0.0 0.00 0.09 0.09 76 1012.4
20260507194458 51 45 0.0 0.0 0.00 0.09 0.09 75 1012.4
20260507193053 52 45 0.0 0.0 0.00 0.09 0.09 73 1012.5
20260507192652 52 68 0.0 0.0 0.00 0.09 0.09 72 1012.4
20260507192251 52 90 0.0 0.0 0.00 0.09 0.09 72 1012.4
20260507191849 52 90 0.0 0.0 0.00 0.09 0.09 71 1012.3
20260507191448 52 90 0.0 0.0 0.00 0.09 0.09 71 1012.3
20260507190847 53 135 0.0 0.0 0.00 0.09 0.09 69 1012.3
20260507190446 53 45 0.0 0.0 0.00 0.09 0.09 67 1012.3
20260507190046 53 90 0.0 0.0 0.00 0.09 0.09 67 1012.2
20260507185644 53 90 0.0 0.0 0.00 0.09 0.09 66 1012.3
20260507185243 53 90 0.0 0.0 0.00 0.09 0.09 66 1012.4
20260507184842 53 45 0.0 0.0 0.00 0.09 0.09 65 1012.3
20260507184441 53 90 0.0 0.0 0.00 0.09 0.09 64 1012.3
20260507184040 54 45 0.0 0.0 0.00 0.09 0.09 62 1012.3
20260507183438 54 135 0.0 0.0 0.00 0.09 0.09 60 1012.3
20260507182637 55 45 0.0 0.0 0.00 0.09 0.09 58 1012.1
20260507182235 55 135 0.0 0.0 0.00 0.09 0.09 56 1012.3
20260507181834 55 135 0.0 0.0 0.00 0.09 0.09 56 1012.2
20260507181432 56 90 0.0 0.0 0.00 0.09 0.09 56 1012.1
20260507181031 56 45 0.0 0.0 0.00 0.09 0.09 55 1012.2
20260507175629 57 90 0.0 0.0 0.00 0.09 0.09 52 1012.3
20260507175227 57 90 0.0 0.0 0.00 0.09 0.09 51 1012.3
20260507174826 58 90 0.0 0.0 0.00 0.09 0.09 49 1012.2
20260507174425 58 90 0.0 0.0 0.00 0.09 0.09 48 1012.3
20260507174024 59 45 0.0 0.0 0.00 0.09 0.09 47 1012.3
20260507173622 60 180 0.0 0.0 0.00 0.09 0.09 45 1012.3
20260507172621 64 180 0.0 0.0 0.00 0.09 0.09 37 1012.5
20260507172219 65 135 0.0 0.0 0.00 0.09 0.09 37 1012.4
20260507171818 68 135 0.0 0.0 0.00 0.09 0.09 35 1012.3
20260507171417 69 135 0.0 0.0 0.00 0.09 0.09 35 1012.3
20260507171016 68 180 0.0 0.0 0.00 0.09 0.09 36 1012.3
20260507170617 67 45 0.0 0.0 0.00 0.09 0.09 37 1012.1
20260507170011 66 180 0.0 0.0 0.00 0.09 0.09 37 1012.1
20260507165610 67 293 0.0 0.0 0.00 0.09 0.09 36 1012.1
20260507165209 68 180 0.0 0.0 0.00 0.09 0.09 36 1011.9
20260507164807 67 180 0.0 0.0 0.00 0.09 0.09 38 1012.1
20260507164406 67 180 0.0 0.0 0.00 0.09 0.09 36 1012.1
20260507164004 67 135 0.0 0.0 0.00 0.09 0.09 38 1012.1
20260507162601 64 90 0.0 0.0 0.00 0.09 0.09 40 1012.1
20260507162159 65 90 0.0 0.9 0.00 0.09 0.09 41 1012.0
20260507161758 65 180 0.0 0.0 0.00 0.09 0.09 39 1012.1
20260507161357 66 225 0.0 0.0 0.00 0.09 0.09 40 1012.1
20260507160355 65 113 0.0 0.0 0.00 0.09 0.09 43 1012.2
20260507155553 62 315 0.0 0.0 0.00 0.09 0.09 47 1012.2
20260507155151 61 45 0.0 0.9 0.00 0.09 0.09 47 1012.1
20260507154750 60 270 0.0 0.0 0.00 0.09 0.09 50 1012.2
20260507154350 60 90 0.0 0.9 0.00 0.09 0.09 49 1012.3
20260507154148 61 45 0.0 0.9 0.00 0.09 0.09 52 1012.3
20260507153747 59 90 0.0 0.0 0.00 0.09 0.09 54 1012.3
20260507153346 58 45 0.0 0.9 0.01 0.09 0.09 56 1012.3
20260507152944 58 248 0.0 0.9 0.02 0.09 0.09 56 1012.3
20260507152544 58 0 0.0 0.0 0.02 0.09 0.09 56 1012.2
20260507152142 58 135 0.0 0.0 0.03 0.09 0.09 56 1012.3
20260507151742 58 45 0.0 0.0 0.04 0.09 0.09 57 1012.3
20260507151341 58 45 0.0 0.0 0.04 0.09 0.09 58 1012.3
20260507150339 58 45 0.0 0.0 0.05 0.09 0.09 58 1012.2
20260507145938 58 135 0.0 0.0 0.05 0.09 0.09 58 1012.2
20260507145538 58 225 0.0 0.0 0.05 0.09 0.09 57 1012.2
20260507145137 58 180 0.0 0.0 0.05 0.09 0.09 57 1012.3
20260507144736 58 270 0.0 0.0 0.05 0.09 0.09 57 1012.3
20260507144334 58 225 0.0 0.0 0.05 0.09 0.09 56 1012.3
20260507143732 58 90 0.0 0.9 0.04 0.09 0.09 55 1012.4
20260507143331 58 180 0.0 0.0 0.03 0.07 0.08 54 1012.4
20260507142930 58 180 0.0 0.9 0.03 0.07 0.07 53 1012.3
20260507142528 59 90 0.0 0.9 0.02 0.05 0.07 51 1012.4
20260507142127 60 45 0.0 0.0 0.01 0.04 0.05 51 1012.5
20260507141725 60 135 0.0 0.0 0.01 0.04 0.04 50 1012.5
20260507141324 60 225 0.0 0.0 0.00 0.03 0.04 49 1012.4
20260507140722 60 135 0.0 0.9 0.00 0.03 0.03 47 1012.5
20260507140321 60 135 0.0 0.9 0.00 0.03 0.03 46 1012.4
20260507135919 61 180 0.0 0.9 0.00 0.03 0.03 47 1012.5
20260507135518 61 45 0.0 0.9 0.00 0.03 0.03 46 1012.4
20260507135117 61 135 0.0 0.0 0.00 0.03 0.03 46 1012.4
20260507134716 61 90 0.0 0.0 0.00 0.03 0.03 46 1012.5
20260507134315 61 315 0.0 0.9 0.00 0.03 0.03 47 1012.4
20260507133913 60 270 0.0 0.0 0.00 0.03 0.03 48 1012.5
20260507132109 60 90 0.0 0.0 0.02 0.03 0.03 48 1012.5
20260507131708 60 0 0.0 0.0 0.02 0.03 0.03 50 1012.5
20260507131307 59 135 0.0 0.0 0.02 0.03 0.03 51 1012.5
20260507130905 59 135 0.0 0.0 0.02 0.03 0.03 52 1012.5
20260507130504 59 315 0.0 0.9 0.02 0.03 0.03 51 1012.5
20260507125100 59 180 0.0 0.0 0.02 0.03 0.03 50 1012.6
20260507124700 60 45 0.0 0.9 0.02 0.03 0.03 49 1012.5
20260507124258 60 180 0.0 0.0 0.02 0.03 0.03 49 1012.5
20260507123456 60 135 0.0 0.0 0.01 0.02 0.03 48 1012.5
20260507123054 60 135 0.0 0.0 0.00 0.01 0.02 48 1012.5
20260507122653 60 135 0.0 0.0 0.00 0.01 0.01 48 1012.4
20260507122251 60 270 0.0 0.0 0.00 0.01 0.01 48 1012.4
20260507121649 60 0 0.0 0.9 0.00 0.01 0.01 49 1012.2
20260507121248 60 113 0.0 1.7 0.00 0.01 0.01 48 1012.3
20260507120847 60 90 0.0 0.9 0.00 0.01 0.01 48 1012.3
20260507120044 59 180 0.0 0.0 0.00 0.01 0.01 51 1012.4
20260507115643 59 45 0.0 0.0 0.00 0.01 0.01 51 1012.4
20260507115242 59 23 0.0 0.0 0.00 0.01 0.01 52 1012.4
20260507114840 58 45 0.0 0.0 0.00 0.01 0.01 54 1012.5
20260507114440 58 0 0.0 0.0 0.00 0.01 0.01 54 1012.6
20260507114239 58 315 0.0 0.0 0.00 0.01 0.01 54 1012.5
20260507113838 58 135 0.0 0.0 0.00 0.01 0.01 54 1012.7
20260507113437 58 180 0.0 0.0 0.00 0.01 0.01 54 1012.6
20260507113035 58 45 0.0 0.9 0.01 0.01 0.01 54 1012.6
20260507112635 58 0 0.0 1.7 0.01 0.01 0.01 53 1012.6
20260507112234 58 0 0.0 0.0 0.01 0.01 0.01 52 1012.6
20260507111835 58 90 0.0 1.7 0.01 0.01 0.01 52 1012.6
20260507111431 58 225 0.0 0.9 0.01 0.01 0.01 50 1012.7
20260507111029 59 0 0.0 1.7 0.01 0.01 0.01 50 1012.6
20260507110628 59 45 0.0 0.0 0.01 0.01 0.01 48 1012.6
20260507110226 59 180 0.0 0.9 0.01 0.01 0.01 49 1012.7
20260507104823 60 90 0.0 0.0 0.01 0.01 0.01 47 1012.5
20260507104422 60 180 0.0 0.9 0.01 0.01 0.01 47 1012.5
20260507104020 60 90 0.0 1.7 0.01 0.01 0.01 47 1012.6
20260507103620 60 90 0.0 0.0 0.00 0.00 0.01 48 1012.6
20260507103218 59 90 0.0 0.9 0.00 0.00 0.00 49 1012.5
20260507102216 59 180 0.0 0.9 0.00 0.00 0.00 44 1012.8
20260507101815 60 135 0.0 0.9 0.00 0.00 0.00 44 1012.7
20260507101413 60 135 0.0 0.0 0.00 0.00 0.00 43 1012.6
20260507101013 60 90 0.0 0.9 0.00 0.00 0.00 43 1012.7
20260507100612 60 225 0.0 0.0 0.00 0.00 0.00 44 1012.7
20260507100210 60 135 0.0 0.9 0.00 0.00 0.00 44 1012.7
20260507095809 60 45 0.0 0.9 0.00 0.00 0.00 43 1012.7
20260507095608 61 45 0.0 0.9 0.00 0.00 0.00 43 1012.6
20260507095207 61 0 0.0 0.9 0.00 0.00 0.00 42 1012.5
20260507094807 61 225 0.0 0.9 0.00 0.00 0.00 42 1012.6
20260507094405 60 45 0.0 1.7 0.00 0.00 0.00 43 1012.6
20260507094004 60 45 0.0 0.9 0.00 0.00 0.00 44 1012.5
20260507093603 60 90 0.9 3.5 0.00 0.00 0.00 43 1012.5
20260507093202 60 135 0.0 1.7 0.00 0.00 0.00 45 1012.5
20260507092159 60 0 0.0 0.0 0.00 0.00 0.00 46 1012.5
20260507091758 59 45 0.0 0.0 0.00 0.00 0.00 46 1012.5
20260507090955 59 225 0.0 1.7 0.00 0.00 0.00 46 1012.7
20260507090555 59 135 0.0 0.0 0.00 0.00 0.00 47 1012.5
20260507085953 58 0 0.0 0.0 0.00 0.00 0.00 48 1012.4
20260507085552 58 180 0.0 0.0 0.00 0.00 0.00 47 1012.4
20260507085151 58 45 0.0 0.0 0.00 0.00 0.00 48 1012.5
20260507084749 58 180 0.0 0.0 0.00 0.00 0.00 47 1012.5
20260507084349 58 45 0.0 0.9 0.00 0.00 0.00 47 1012.4
20260507083947 58 135 0.0 0.0 0.00 0.00 0.00 47 1012.4
20260507083746 59 180 0.0 0.0 0.00 0.00 0.00 46 1012.3
20260507083345 59 315 0.0 0.9 0.00 0.00 0.00 45 1012.1
20260507082943 59 225 0.0 0.0 0.00 0.00 0.00 45 1012.2
20260507082543 60 225 0.0 0.0 0.00 0.00 0.00 45 1012.1
20260507082142 60 0 0.0 0.0 0.00 0.00 0.00 45 1012.0
20260507080738 60 248 0.0 0.9 0.00 0.00 0.00 44 1011.8
20260507080337 60 90 0.9 2.6 0.00 0.00 0.00 44 1011.9
20260507075935 60 315 0.0 0.0 0.00 0.00 0.00 44 1012.0
20260507075734 60 45 0.0 0.9 0.00 0.00 0.00 44 1012.0
20260507075333 60 0 0.0 0.0 0.00 0.00 0.00 43 1012.0
20260507074931 60 45 0.0 0.9 0.00 0.00 0.00 43 1011.9
20260507074530 61 45 0.9 1.7 0.00 0.00 0.00 42 1011.7
20260507074129 61 0 0.0 0.9 0.00 0.00 0.00 43 1011.7
20260507072726 59 225 0.0 0.0 0.00 0.00 0.00 46 1011.6
20260507072324 58 135 0.0 0.9 0.00 0.00 0.00 49 1011.8
20260507071923 57 90 0.0 0.0 0.00 0.00 0.00 51 1011.8
20260507071523 56 45 0.0 0.9 0.00 0.00 0.00 51 1011.8
20260507070520 56 135 0.0 0.0 0.00 0.00 0.00 52 1011.9
20260507070118 56 45 0.0 0.0 0.00 0.00 0.00 52 1011.7
20260507065717 56 90 0.0 0.9 0.00 0.00 0.00 52 1011.7
20260507065316 56 90 0.0 0.0 0.00 0.00 0.00 52 1011.7
20260507064914 56 45 1.7 2.6 0.00 0.00 0.00 53 1011.7
20260507064713 56 0 0.0 0.0 0.00 0.00 0.00 53 1011.7
20260507064312 56 23 0.0 0.0 0.00 0.00 0.00 53 1011.7
20260507063911 56 90 0.0 0.0 0.00 0.09 0.00 53 1011.7
20260507063509 56 135 0.0 0.0 0.00 0.11 0.00 54 1011.5
20260507063108 55 0 0.0 0.0 0.00 0.11 0.00 54 1011.7
20260507062707 55 45 0.0 0.0 0.00 0.11 0.00 54 1011.6
20260507061704 55 270 0.0 0.0 0.00 0.11 0.00 55 1011.4
20260507061303 55 315 0.0 0.0 0.00 0.11 0.00 55 1011.4
20260507060901 55 180 0.0 0.9 0.00 0.11 0.00 55 1011.4
20260507060501 54 315 0.0 0.0 0.00 0.11 0.00 56 1011.3
20260507055859 54 90 0.0 0.0 0.00 0.11 0.00 57 1011.4
20260507055458 54 135 0.0 0.0 0.00 0.11 0.00 57 1011.4
20260507055057 54 0 0.0 0.9 0.00 0.11 0.00 58 1011.3
20260507054655 54 315 0.0 0.0 0.00 0.11 0.00 59 1011.3
20260507054254 54 0 0.0 0.0 0.00 0.11 0.00 60 1011.2
20260507053853 54 225 0.0 0.9 0.00 0.11 0.00 61 1011.2
20260507053252 54 270 0.0 0.0 0.00 0.11 0.00 61 1011.2
20260507052850 54 90 0.0 0.0 0.00 0.11 0.00 61 1011.2
20260507052449 54 45 0.0 0.9 0.00 0.11 0.00 61 1011.1
20260507052048 54 315 0.0 0.0 0.00 0.11 0.00 62 1011.1
20260507051646 54 248 0.0 0.9 0.00 0.11 0.00 62 1011.0
20260507051245 54 45 0.0 0.0 0.00 0.11 0.00 62 1010.9
20260507050843 54 180 0.0 0.0 0.00 0.11 0.00 62 1010.9
20260507050442 54 0 0.0 0.9 0.00 0.11 0.00 62 1010.7
20260507045439 53 113 0.0 0.0 0.00 0.11 0.00 64 1010.6
20260507045038 53 23 0.0 0.9 0.00 0.11 0.00 64 1010.7
20260507044637 53 45 0.0 0.9 0.00 0.11 0.00 64 1010.6
20260507044235 53 293 0.0 0.0 0.00 0.11 0.00 64 1010.6
20260507043834 53 45 0.0 0.0 0.00 0.11 0.00 64 1010.6
20260507043433 53 293 0.0 0.0 0.00 0.11 0.00 64 1010.6
20260507042430 54 135 0.0 0.9 0.00 0.12 0.00 62 1010.5
20260507042029 54 225 0.0 0.0 0.00 0.12 0.00 62 1010.5
20260507041627 54 45 0.0 0.0 0.00 0.12 0.00 62 1010.4
20260507041226 54 45 0.0 0.9 0.00 0.12 0.00 62 1010.5
20260507040825 54 315 0.0 0.0 0.00 0.12 0.00 62 1010.3
20260507040423 54 68 0.0 0.0 0.00 0.14 0.00 63 1010.4
20260507035822 54 315 0.0 0.9 0.00 0.14 0.00 63 1010.4
20260507035420 54 0 0.0 0.0 0.00 0.15 0.00 63 1010.4
20260507035020 54 45 0.0 0.9 0.00 0.16 0.00 63 1010.5
20260507034618 54 45 0.0 0.0 0.00 0.16 0.00 63 1010.4
20260507034217 54 315 0.0 0.0 0.00 0.16 0.00 63 1010.5
20260507033815 54 23 0.0 0.0 0.00 0.16 0.00 62 1010.5
20260507033414 54 45 0.0 0.0 0.00 0.16 0.00 62 1010.5
20260507033013 54 180 0.0 0.0 0.00 0.16 0.00 62 1010.3
20260507032010 54 90 0.0 0.9 0.00 0.16 0.00 63 1010.3
20260507031609 54 45 0.0 0.0 0.00 0.16 0.00 63 1010.3
20260507031207 54 90 0.0 0.0 0.00 0.16 0.00 63 1010.4
20260507030806 54 45 0.0 0.9 0.00 0.16 0.00 63 1010.4
20260507030404 54 135 0.0 0.0 0.00 0.16 0.00 63 1010.3
20260507030003 54 0 0.0 0.0 0.00 0.16 0.00 63 1010.2
20260507025401 54 0 0.0 0.0 0.00 0.17 0.00 63 1010.4
20260507025000 54 45 0.0 0.0 0.00 0.20 0.00 63 1010.3
20260507024558 54 45 0.0 0.0 0.00 0.21 0.00 63 1010.3
20260507024157 54 45 0.0 0.9 0.00 0.22 0.00 63 1010.3
20260507023756 54 113 0.0 0.0 0.00 0.23 0.00 64 1010.2
20260507022753 54 45 0.0 0.0 0.00 0.27 0.00 63 1010.3
20260507022351 54 45 0.0 0.9 0.00 0.29 0.00 63 1010.3
20260507021950 54 135 0.0 0.0 0.00 0.34 0.00 63 1010.2
20260507021548 54 45 0.0 0.0 0.00 0.38 0.00 63 1010.3
20260507021147 54 45 0.0 0.0 0.00 0.40 0.00 63 1010.3
20260507020751 54 180 0.0 0.0 0.00 0.41 0.00 62 1010.3
20260507020545 54 23 0.0 0.0 0.00 0.41 0.00 62 1010.3
20260507020144 54 90 0.0 0.0 0.00 0.42 0.00 62 1010.3
20260507015743 54 135 0.0 0.0 0.00 0.43 0.00 62 1010.3
20260507015341 54 90 0.0 0.0 0.00 0.46 0.00 61 1010.2
20260507014940 54 90 0.0 0.9 0.00 0.47 0.00 61 1010.3
20260507014539 54 270 0.0 0.0 0.00 0.48 0.00 61 1010.3
20260507014137 54 225 0.0 0.9 0.00 0.49 0.00 61 1010.3
20260507013135 54 270 0.0 0.0 0.00 0.56 0.00 60 1010.3
20260507012734 54 135 0.0 0.0 0.00 0.56 0.00 59 1010.3
20260507012332 54 45 0.0 0.0 0.00 0.57 0.00 59 1010.3
20260507011931 54 90 0.0 0.9 0.00 0.59 0.00 58 1010.3
20260507011530 54 45 0.0 0.0 0.00 0.60 0.00 58 1010.3
20260507011128 54 45 0.0 0.0 0.00 0.62 0.00 58 1010.2
20260507010527 54 0 0.0 0.0 0.00 0.63 0.00 58 1010.4
20260507010126 54 45 0.0 0.0 0.00 0.64 0.00 58 1010.4
20260507005725 54 45 0.0 0.0 0.00 0.66 0.00 58 1010.5
20260507005324 54 90 0.0 0.9 0.00 0.66 0.00 57 1010.5
20260507004922 54 180 0.0 0.9 0.00 0.66 0.00 58 1010.5
20260507004521 54 45 0.0 0.0 0.00 0.67 0.00 58 1010.5
20260507004320 54 90 0.0 0.0 0.00 0.67 0.00 58 1010.4
20260507003919 54 315 0.0 0.0 0.00 0.67 0.00 58 1010.4
20260507003517 54 315 0.0 0.0 0.00 0.67 0.00 58 1010.4
20260507003116 54 0 0.0 0.0 0.00 0.67 0.00 57 1010.4
20260507002716 54 180 0.0 0.0 0.00 0.67 0.00 57 1010.4
20260507002315 54 113 0.0 0.0 0.00 0.67 0.00 57 1010.4
20260507001913 54 45 0.0 0.0 0.00 0.67 0.00 56 1010.5
20260507001311 55 180 0.0 0.0 0.00 0.67 0.00 55 1010.4
20260507000910 55 45 0.0 1.7 0.00 0.67 0.00 54 1010.4
20260507000509 55 135 0.0 0.9 0.00 0.67 0.00 53 1010.4
20260507000108 55 90 0.0 0.0 0.00 0.67 0.00 53 1010.5
20260506235707 55 180 0.0 0.0 0.00 0.67 0.00 53 1010.5
20260506235105 55 135 0.0 1.7 0.00 0.67 0.00 54 1010.5
20260506234703 55 135 0.0 1.7 0.00 0.67 0.00 54 1010.5
20260506234302 55 0 0.0 1.7 0.00 0.67 0.00 55 1010.5
20260506233901 55 23 0.0 0.9 0.00 0.67 0.00 55 1010.5
20260506233459 55 113 0.0 0.0 0.00 0.67 0.00 55 1010.6
20260506233058 55 158 0.0 0.0 0.00 0.67 0.00 55 1010.5
20260506232657 55 180 0.0 0.9 0.00 0.67 0.00 55 1010.5
20260506231654 55 135 0.0 0.0 0.00 0.67 0.00 54 1010.6
20260506231253 55 45 0.0 0.9 0.00 0.67 0.00 54 1010.6
20260506230852 55 135 0.0 0.9 0.00 0.67 0.00 54 1010.6
20260506230451 55 90 0.0 0.0 0.00 0.67 0.00 53 1010.5